• In Portugal
  • List of Countries
  • For 7 days
  • Water Temperature
  • Satellite Maps
  • Weather Map
  • Weather Widgets
  • user-avatar
    Login

    Hourly Weather La Rioja

    Today, 17 December, Sunday

    Time Temperature Precipitation Wind Pressure Humidity
    00:00 +37°C° 0.6 mm 3 mps 706 mmHg 33%
    01:00 +36°C° 0.6 mm 3 mps 706 mmHg 33%
    02:00 +36°C° 0.6 mm 3 mps 706 mmHg 34%
    03:00 +35°C° 0.7 mm 4 mps 707 mmHg 35%
    04:00 +33°C° 0.7 mm 6 mps 708 mmHg 36%
    05:00 +32°C° 0.7 mm 7 mps 710 mmHg 37%
    06:00 +31°C° 0.2 mm 8 mps 712 mmHg 38%
    07:00 +29°C° 0.2 mm 8 mps 714 mmHg 38%
    08:00 +28°C° 0.2 mm 8 mps 716 mmHg 39%
    09:00 +28°C° 0 mm 7 mps 717 mmHg 36%
    10:00 +29°C° 0 mm 6 mps 717 mmHg 33%
    11:00 +29°C° 0 mm 5 mps 718 mmHg 30%
    12:00 +30°C° 0 mm 5 mps 718 mmHg 28%
    13:00 +32°C° 0 mm 5 mps 717 mmHg 25%
    14:00 +33°C° 0 mm 4 mps 717 mmHg 23%
    15:00 +33°C° 0 mm 4 mps 717 mmHg 23%
    16:00 +33°C° 0 mm 4 mps 716 mmHg 23%
    17:00 +33°C° 0 mm 4 mps 716 mmHg 23%
    18:00 +32°C° 0 mm 4 mps 716 mmHg 25%
    19:00 +30°C° 0 mm 3 mps 717 mmHg 27%
    20:00 +29°C° 0 mm 3 mps 717 mmHg 30%
    21:00 +28°C° 0 mm 3 mps 718 mmHg 31%
    22:00 +28°C° 0 mm 3 mps 718 mmHg 32%
    23:00 +27°C° 0 mm 3 mps 719 mmHg 33%

    Tomorrow, 18 December, Monday

    Time Temperature Precipitation Wind Pressure Humidity
    00:00 +26°C° 0 mm 3 mps 718 mmHg 33%
    01:00 +25°C° 0 mm 3 mps 718 mmHg 33%
    02:00 +25°C° 0 mm 2 mps 717 mmHg 33%
    03:00 +24°C° 0 mm 2 mps 717 mmHg 33%
    04:00 +24°C° 0 mm 2 mps 717 mmHg 33%
    05:00 +23°C° 0 mm 2 mps 716 mmHg 33%
    06:00 +24°C° 0 mm 2 mps 716 mmHg 32%
    07:00 +25°C° 0 mm 3 mps 717 mmHg 31%
    08:00 +26°C° 0 mm 3 mps 717 mmHg 30%
    09:00 +27°C° 0 mm 3 mps 716 mmHg 28%
    10:00 +28°C° 0 mm 3 mps 716 mmHg 27%
    11:00 +30°C° 0 mm 3 mps 716 mmHg 26%
    12:00 +32°C° 0 mm 4 mps 715 mmHg 25%
    13:00 +33°C° 0 mm 4 mps 714 mmHg 24%
    14:00 +34°C° 0 mm 4 mps 713 mmHg 23%
    15:00 +34°C° 0 mm 4 mps 712 mmHg 24%
    16:00 +35°C° 0 mm 5 mps 712 mmHg 24%
    17:00 +35°C° 0 mm 5 mps 712 mmHg 24%
    18:00 +34°C° 0 mm 4 mps 712 mmHg 26%
    19:00 +33°C° 0 mm 4 mps 713 mmHg 28%
    20:00 +32°C° 0 mm 4 mps 713 mmHg 31%
    21:00 +31°C° 0 mm 3 mps 714 mmHg 33%
    22:00 +30°C° 0 mm 3 mps 714 mmHg 35%
    23:00 +29°C° 0 mm 2 mps 714 mmHg 37%

    Day after tomorrow, 19 December, Tuesday

    Time Temperature Precipitation Wind Pressure Humidity
    00:00 +29°C° 0.1 mm 2 mps 714 mmHg 39%
    01:00 +28°C° 0.1 mm 2 mps 714 mmHg 40%
    02:00 +28°C° 0.1 mm 2 mps 713 mmHg 42%
    03:00 +28°C° 0.1 mm 2 mps 713 mmHg 44%
    04:00 +27°C° 0.1 mm 2 mps 713 mmHg 46%
    05:00 +27°C° 0.1 mm 2 mps 713 mmHg 47%
    06:00 +28°C° 0 mm 2 mps 714 mmHg 45%
    07:00 +28°C° 0 mm 2 mps 714 mmHg 44%
    08:00 +29°C° 0 mm 2 mps 714 mmHg 42%
    09:00 +31°C° 0 mm 2 mps 714 mmHg 38%
    10:00 +32°C° 0 mm 2 mps 714 mmHg 35%
    11:00 +35°C° 0 mm 2 mps 714 mmHg 31%
    12:00 +36°C° 0 mm 3 mps 713 mmHg 29%
    13:00 +37°C° 0 mm 4 mps 713 mmHg 28%
    14:00 +38°C° 0 mm 4 mps 712 mmHg 26%
    15:00 +39°C° 0 mm 5 mps 712 mmHg 27%
    16:00 +39°C° 0 mm 5 mps 712 mmHg 27%
    17:00 +39°C° 0 mm 6 mps 712 mmHg 28%
    18:00 +36°C° 0.2 mm 6 mps 712 mmHg 35%
    19:00 +34°C° 0.2 mm 6 mps 713 mmHg 43%
    20:00 +32°C° 0.2 mm 6 mps 713 mmHg 50%
    21:00 +30°C° 0.4 mm 5 mps 714 mmHg 57%
    22:00 +29°C° 0.4 mm 4 mps 714 mmHg 64%
    23:00 +28°C° 0.4 mm 3 mps 714 mmHg 72%

    20 December, Wednesday

    Time Temperature Precipitation Wind Pressure Humidity
    00:00 +27°C° 0.7 mm 3 mps 714 mmHg 74%
    01:00 +27°C° 0.7 mm 3 mps 714 mmHg 76%
    02:00 +26°C° 0.7 mm 2 mps 713 mmHg 78%
    03:00 +26°C° 0.2 mm 2 mps 713 mmHg 79%
    04:00 +26°C° 0.2 mm 2 mps 713 mmHg 79%
    05:00 +26°C° 0.2 mm 1 mps 713 mmHg 80%
    06:00 +27°C° 0 mm 1 mps 713 mmHg 75%
    07:00 +27°C° 0 mm 1 mps 713 mmHg 70%
    08:00 +28°C° 0 mm 1 mps 714 mmHg 66%
    09:00 +30°C° 0.1 mm 2 mps 713 mmHg 59%
    10:00 +32°C° 0.1 mm 2 mps 713 mmHg 51%
    11:00 +34°C° 0.1 mm 2 mps 712 mmHg 44%
    12:00 +35°C° 0.4 mm 3 mps 711 mmHg 41%
    13:00 +37°C° 0.4 mm 3 mps 711 mmHg 37%
    14:00 +38°C° 0.4 mm 3 mps 710 mmHg 33%
    15:00 +38°C° 0.4 mm 4 mps 709 mmHg 32%
    16:00 +38°C° 0.4 mm 4 mps 709 mmHg 31%
    17:00 +40°C° 0.4 mm 4 mps 708 mmHg 30%
    18:00 +37°C° 0.2 mm 4 mps 709 mmHg 34%
    19:00 +36°C° 0.2 mm 4 mps 709 mmHg 38%
    20:00 +35°C° 0.2 mm 4 mps 709 mmHg 42%
    21:00 +34°C° 0.1 mm 4 mps 710 mmHg 45%
    22:00 +33°C° 0.1 mm 3 mps 710 mmHg 49%
    23:00 +31°C° 0.1 mm 3 mps 711 mmHg 53%

    21 December, Thursday

    Time Temperature Precipitation Wind Pressure Humidity
    00:00 +31°C° 0 mm 2 mps 710 mmHg 54%
    01:00 +30°C° 0 mm 2 mps 710 mmHg 56%
    02:00 +29°C° 0 mm 1 mps 709 mmHg 57%
    03:00 +29°C° 0 mm 1 mps 709 mmHg 59%
    04:00 +29°C° 0 mm 1 mps 709 mmHg 61%
    05:00 +28°C° 0 mm 1 mps 709 mmHg 63%
    06:00 +29°C° 0 mm 1 mps 710 mmHg 58%
    07:00 +30°C° 0 mm 1 mps 710 mmHg 54%
    08:00 +31°C° 0 mm 1 mps 711 mmHg 49%
    09:00 +33°C° 0 mm 1 mps 711 mmHg 45%
    10:00 +35°C° 0 mm 2 mps 710 mmHg 41%
    11:00 +37°C° 0 mm 2 mps 710 mmHg 36%
    12:00 +38°C° 0.5 mm 2 mps 710 mmHg 34%
    13:00 +39°C° 0.5 mm 3 mps 709 mmHg 31%
    14:00 +40°C° 0.5 mm 3 mps 709 mmHg 29%
    15:00 +41°C° 0.2 mm 4 mps 708 mmHg 28%
    16:00 +41°C° 0.2 mm 4 mps 708 mmHg 28%
    17:00 +41°C° 0.2 mm 5 mps 708 mmHg 28%
    18:00 +40°C° 0.7 mm 4 mps 708 mmHg 32%
    19:00 +37°C° 0.7 mm 4 mps 708 mmHg 37%
    20:00 +36°C° 0.7 mm 3 mps 709 mmHg 42%
    21:00 +35°C° 1.4 mm 3 mps 709 mmHg 46%
    22:00 +34°C° 1.4 mm 3 mps 709 mmHg 49%
    23:00 +32°C° 1.4 mm 2 mps 709 mmHg 53%

    22 December, Friday

    Time Temperature Precipitation Wind Pressure Humidity
    00:00 +31°C° 1 mm 2 mps 709 mmHg 54%
    01:00 +31°C° 1 mm 2 mps 708 mmHg 55%
    02:00 +31°C° 1 mm 1 mps 708 mmHg 56%
    03:00 +30°C° 0.3 mm 1 mps 708 mmHg 56%
    04:00 +30°C° 0.3 mm 1 mps 708 mmHg 56%
    05:00 +29°C° 0.3 mm 1 mps 708 mmHg 57%
    06:00 +30°C° 0.5 mm 1 mps 708 mmHg 53%
    07:00 +31°C° 0.5 mm 1 mps 708 mmHg 49%
    08:00 +32°C° 0.5 mm 1 mps 708 mmHg 45%
    09:00 +35°C° 0.2 mm 2 mps 708 mmHg 42%
    10:00 +36°C° 0.2 mm 2 mps 708 mmHg 39%
    11:00 +37°C° 0.2 mm 2 mps 708 mmHg 35%
    12:00 +38°C° 0.1 mm 3 mps 707 mmHg 33%
    13:00 +39°C° 0.1 mm 3 mps 707 mmHg 32%
    14:00 +41°C° 0.1 mm 4 mps 706 mmHg 30%
    15:00 +41°C° 0.4 mm 4 mps 706 mmHg 30%
    16:00 +41°C° 0.4 mm 5 mps 706 mmHg 31%
    17:00 +41°C° 0.4 mm 6 mps 706 mmHg 31%
    18:00 +39°C° 1.6 mm 5 mps 707 mmHg 38%
    19:00 +36°C° 1.6 mm 5 mps 707 mmHg 44%
    20:00 +35°C° 1.6 mm 5 mps 708 mmHg 51%
    21:00 +33°C° 4.5 mm 5 mps 709 mmHg 56%
    22:00 +32°C° 4.5 mm 5 mps 709 mmHg 61%
    23:00 +30°C° 4.5 mm 5 mps 710 mmHg 67%
    Show more